User: anonymous   Login
Location: Champignolles
(47.0543°N, 4.5663°E)
Time: 21:37:55
(UTC+00:00)
Language:

DMSP 5D-2 F13 DEB - Orbit

View from above orbital plane
View from above orbital plane
View from above satellite
View from above satellite

Ground track
Ground track

The orbit data is extracted from the following two-line orbital elements,

1 40398U 95015K   21175.46769909  .00000033  00000-0  38819-4 0  9999
2 40398  98.8173 180.1805 0005496 304.1367  55.9285 14.16171408330107
Epoch (UTC): 24 June 2021 11:13:29
Eccentricity: 0.0005496
inclination: 98.8173°
perigee height: 834 km
apogee height: 842 km
right ascension of ascending node: 180.1805°
argument of perigee: 304.1367°
revolutions per day: 14.16171408
mean anomaly at epoch: 55.9285°
orbit number at epoch: 33010

The dashed part of the orbit path shows where the satellite is in the earth's shadow,  

DLR